Corona, CA

6:26 AM PST on February 08, 2016 (GMT -0800)
Corona Municipal

Weather History for KAJO - January, 2013

Change the Weather History Date:

Wednesday, January 16, 2013

  Actual Average (KONT) Record (KONT)
Temperature  
Mean Temperature 49 °F 55 °F  
Max Temperature 72 °F 65 °F 86 °F (2014)
Min Temperature 26 °F 44 °F 34 °F (2007)
Degree Days  
Heating Degree Days 16 11  
Month to date heating degree days 176  
Since 1 July heating degree days 736  
Cooling Degree Days 0 0  
Month to date cooling degree days 0  
Year to date cooling degree days 0  
Moisture  
Dew Point 22 °F    
Average Humidity 40    
Maximum Humidity 100    
Minimum Humidity 13    
Precipitation  
Precipitation 0.00 in 0.11 in 3.02 in (1952)
Month to date precipitation 2.00  
Year to date precipitation 2.00  
Sea Level Pressure  
Sea Level Pressure 30.25 in    
Wind  
Wind Speed 3 mph (East)    
Max Wind Speed 21 mph    
Max Gust Speed 29 mph    
Visibility 10 miles    
Events      
T = Trace of Precipitation, MM = Missing Value Source: NWS Daily Summary

Daily Weather History Graph

Daily Weather History Graph

Search for Another Location

Airport or City:

Trip Planner

Search our weather history database for the weather conditions in past years. The results will help you decide how hot, cold, wet, or windy it might be!

Date:

Astronomy

Jan. 16, 2013 Rise Set
Actual Time 6:55 AM PST 5:05 PM PST
Civil Twilight 6:28 AM PST 5:32 PM PST
Nautical Twilight 5:57 AM PST 6:03 PM PST
Astronomical Twilight 5:27 AM PST 6:33 PM PST
Moon 9:51 AM PST (1/16) 10:42 PM PST (1/16)
Length of Visible Light 11h 04m
Length of Day
10h 10m
Waxing Crescent, 29% of the Moon is Illuminated
Jan 16
Waxing Crescent
Jan 18
First Quarter
Jan 26
Full
Feb 3
Last Quarter
Feb 9
New

Hourly Weather History & Observations

Time (PST) Temp. Dew Point Humidity Pressure Visibility Wind Dir Wind Speed Gust Speed Precip Events Conditions
12:56 AM 34.0 °F 23.0 °F 64% 30.35 in 10.0 mi Calm Calm - N/A   Clear
1:56 AM 30.0 °F 23.0 °F 75% 30.35 in 10.0 mi Calm Calm - N/A   Clear
2:56 AM 32.0 °F 24.1 °F 73% 30.35 in 10.0 mi Calm Calm - N/A   Clear
4:56 AM 27.1 °F 25.2 °F 92% 30.34 in 10.0 mi Calm Calm - N/A   Clear
5:56 AM 27.1 °F 25.2 °F 92% 30.34 in 10.0 mi Calm Calm - N/A   Clear
6:56 AM 26.1 °F 26.1 °F 100% 30.35 in 10.0 mi Calm Calm - N/A   Clear
7:56 AM 32.9 °F 29.1 °F 86% 30.36 in 10.0 mi Calm Calm - N/A   Clear
8:56 AM 43.9 °F 28.0 °F 54% 30.37 in 10.0 mi Calm Calm - N/A   Clear
9:56 AM 52.9 °F 28.0 °F 38% 30.34 in 10.0 mi Calm Calm - N/A   Clear
10:56 AM 65.8 °F 26.1 °F 22% 30.29 in 10.0 mi NNE 8.1 mph - N/A   Clear
11:56 AM 70.9 °F 22.1 °F 16% 30.24 in 10.0 mi ENE 12.7 mph - N/A   Clear
12:56 PM 70.0 °F 23.0 °F 17% 30.20 in 10.0 mi Calm Calm - N/A   Clear
1:56 PM 70.9 °F 22.1 °F 16% 30.17 in 10.0 mi NNE 3.5 mph - N/A   Clear
2:56 PM 72.9 °F 22.1 °F 15% 30.17 in 10.0 mi Calm Calm - N/A   Clear
3:56 PM 70.9 °F 23.0 °F 17% 30.17 in 10.0 mi Variable 3.5 mph - N/A   Clear
4:56 PM 63.0 °F 28.0 °F 27% 30.18 in 10.0 mi Calm Calm - N/A   Clear
5:56 PM 63.0 °F 19.0 °F 18% 30.18 in 10.0 mi ENE 11.5 mph - N/A   Clear
6:56 PM 66.9 °F 14.0 °F 13% 30.18 in 10.0 mi ENE 20.7 mph 28.8 mph N/A   Clear
7:56 PM 65.8 °F 14.0 °F 13% 30.19 in 10.0 mi East 15.0 mph 24.2 mph N/A   Clear
8:56 PM 63.0 °F 17.1 °F 17% 30.17 in 10.0 mi East 9.2 mph - N/A   Clear
9:56 PM 63.0 °F 17.1 °F 17% 30.16 in 10.0 mi SE 11.5 mph 19.6 mph N/A   Clear
10:56 PM 61.9 °F 18.1 °F 18% 30.15 in 10.0 mi ESE 12.7 mph 19.6 mph N/A   Clear
11:56 PM 57.9 °F 19.0 °F 22% 30.15 in 10.0 mi ESE 11.5 mph - N/A   Clear